Location: Trementina
(35.4589°N, 104.4243°W)
Time: 09:56:02
(UTC+00:00)

ISS - Visible Passes

Search period start: 08 December 2022 00:00
Search period end: 18 December 2022 00:00
Orbit: 414 x 420 km, 51.6° (Epoch: 08 December)

Date Brightness Start Highest point End Pass type
(mag) Time Alt. Az. Time Alt. Az. Time Alt. Az.
08 Dec -3.6 00:39:35 10° NW 00:42:55 75° SW 00:46:13 10° SE visible
09 Dec -0.4 01:29:58 10° WSW 01:31:06 11° SW 01:32:12 10° SW visible
10 Dec -0.9 00:40:28 10° WNW 00:43:04 21° SW 00:45:38 10° S visible
15 Dec -1.1 13:19:35 10° S 13:22:25 25° SE 13:25:15 10° ENE visible
16 Dec -0.5 12:32:27 10° SSE 12:34:15 14° SE 12:36:03 10° E visible
17 Dec -3.8 13:18:58 10° SW 13:22:19 90° NNW 13:25:41 10° NE visible
